{"data":{"norad_id":48305,"epoch":"2026-09-20T04:00:03.000096Z","epoch_age_seconds":62443,"freshness":"FRESH","line1":"1 48305U 21036AF  26263.16670139  .00042384  00000+0  11126-2 0  9997","line2":"2 48305  53.1571 274.3289 0001233  91.2471 205.7967 15.38242036  5850","mean_motion":15.38242036,"eccentricity":0.0001233,"inclination_deg":53.1571,"raan_deg":274.3289,"arg_perigee_deg":91.2471,"mean_anomaly_deg":205.7967,"bstar":0.0011126,"rev_number":585,"period_min":93.613356435411,"perigee_km":450.46560382941,"apogee_km":452.14974488611,"semimajor_km":6829.4446743578,"source":"CELESTRAK","updated_at":"2026-09-20T09:00:38.932785Z"}}